owner,sensor,date,latitude,longitude,vertical_datum,wind_speed,wind_to_direction,wind_speed_of_gust,qcFlag 
COMPS,ioos:station:USF.COMPS:NFB:1,2014-03-01T00:00:00Z,25.0840,-81.0960,6.0,5.25,6.61,6.46,'1111122,1111122,1111122' 
COMPS,ioos:station:USF.COMPS:NFB:1,2014-03-01T00:06:00Z,25.0840,-81.0960,6.0,4.96,2.5,6.27,'1111122,1111122,1111122' 
COMPS,ioos:station:USF.COMPS:NFB:1,2014-03-01T00:12:00Z,25.0840,-81.0960,6.0,4.85,4.88,6.07,'1111122,1111122,1111122' 
COMPS,ioos:station:USF.COMPS:NFB:1,2014-03-01T00:18:00Z,25.0840,-81.0960,6.0,4.83,4.78,5.97,'1111122,1111122,1111122' 
COMPS,ioos:station:USF.COMPS:NFB:1,2014-03-01T00:24:00Z,25.0840,-81.0960,6.0,4.33,5.26,5.58,'1111122,1111122,1111122' 
COMPS,ioos:station:USF.COMPS:NFB:1,2014-03-01T00:30:00Z,25.0840,-81.0960,6.0,4.41,5.04,5.48,'1111122,1111122,1111122' 
COMPS,ioos:station:USF.COMPS:NFB:1,2014-03-01T00:36:00Z,25.0840,-81.0960,6.0,4.76,5.77,7.35,'1111122,1111122,1111122' 
COMPS,ioos:station:USF.COMPS:NFB:1,2014-03-01T00:42:00Z,25.0840,-81.0960,6.0,4.43,3.23,5.58,'1111122,1111122,1111122' 
COMPS,ioos:station:USF.COMPS:NFB:1,2014-03-01T00:48:00Z,25.0840,-81.0960,6.0,5.05,2.0,6.66,'1111122,1111122,1111122' 
COMPS,ioos:station:USF.COMPS:NFB:1,2014-03-01T00:54:00Z,25.0840,-81.0960,6.0,5.19,1.68,6.56,'1111122,1111122,1111122' 
COMPS,ioos:station:USF.COMPS:NFB:1,2014-03-01T01:00:00Z,25.0840,-81.0960,6.0,5.16,1.75,6.56,'1111122,1111122,1111122' 
COMPS,ioos:station:USF.COMPS:NFB:1,2014-03-01T01:06:00Z,25.0840,-81.0960,6.0,5.33,354.31,6.46,'1111122,1111122,1111122' 
COMPS,ioos:station:USF.COMPS:NFB:1,2014-03-01T01:12:00Z,25.0840,-81.0960,6.0,5.28,2.38,6.85,'1111122,1111122,1111122' 
COMPS,ioos:station:USF.COMPS:NFB:1,2014-03-01T01:18:00Z,25.0840,-81.0960,6.0,5.0,351.59,5.78,'1111122,1111122,1111122' 
COMPS,ioos:station:USF.COMPS:NFB:1,2014-03-01T01:24:00Z,25.0840,-81.0960,6.0,5.04,1.2,6.27,'1111122,1111122,1111122' 
COMPS,ioos:station:USF.COMPS:NFB:1,2014-03-01T01:30:00Z,25.0840,-81.0960,6.0,5.43,348.34,7.44,'1111122,1111122,1111122' 
COMPS,ioos:station:USF.COMPS:NFB:1,2014-03-01T01:36:00Z,25.0840,-81.0960,6.0,5.01,348.58,6.27,'1111122,1111122,1111122' 
COMPS,ioos:station:USF.COMPS:NFB:1,2014-03-01T01:42:00Z,25.0840,-81.0960,6.0,5.48,346.62,6.46,'1111122,1111122,1111122' 
COMPS,ioos:station:USF.COMPS:NFB:1,2014-03-01T01:48:00Z,25.0840,-81.0960,6.0,5.38,346.78,6.27,'1111122,1111122,1111122' 
COMPS,ioos:station:USF.COMPS:NFB:1,2014-03-01T01:54:00Z,25.0840,-81.0960,6.0,5.51,354.68,6.37,'1111122,1111122,1111122' 
COMPS,ioos:station:USF.COMPS:NFB:1,2014-03-01T02:00:00Z,25.0840,-81.0960,6.0,5.66,352.13,6.76,'1111122,1111122,1111122' 
COMPS,ioos:station:USF.COMPS:NFB:1,2014-03-01T02:06:00Z,25.0840,-81.0960,6.0,5.59,346.09,6.95,'1111122,1111122,1111122' 
COMPS,ioos:station:USF.COMPS:NFB:1,2014-03-01T02:12:00Z,25.0840,-81.0960,6.0,5.93,349.16,6.95,'1111122,1111122,1111122' 
COMPS,ioos:station:USF.COMPS:NFB:1,2014-03-01T02:18:00Z,25.0840,-81.0960,6.0,5.96,350.65,6.85,'1111122,1111122,1111122' 
COMPS,ioos:station:USF.COMPS:NFB:1,2014-03-01T02:24:00Z,25.0840,-81.0960,6.0,5.76,354.69,6.76,'1111122,1111122,1111122' 
COMPS,ioos:station:USF.COMPS:NFB:1,2014-03-01T02:30:00Z,25.0840,-81.0960,6.0,5.96,351.71,7.05,'1111122,1111122,1111122' 
COMPS,ioos:station:USF.COMPS:NFB:1,2014-03-01T02:36:00Z,25.0840,-81.0960,6.0,5.49,358.31,7.05,'1111122,1111122,1111122' 
COMPS,ioos:station:USF.COMPS:NFB:1,2014-03-01T02:42:00Z,25.0840,-81.0960,6.0,5.48,1.28,6.66,'1111122,1111122,1111122' 
COMPS,ioos:station:USF.COMPS:NFB:1,2014-03-01T02:48:00Z,25.0840,-81.0960,6.0,5.85,4.8,6.85,'1111122,1111122,1111122' 
COMPS,ioos:station:USF.COMPS:NFB:1,2014-03-01T02:54:00Z,25.0840,-81.0960,6.0,5.76,359.27,7.35,'1111122,1111122,1111122' 
COMPS,ioos:station:USF.COMPS:NFB:1,2014-03-01T03:00:00Z,25.0840,-81.0960,6.0,5.53,359.51,6.95,'1111122,1111122,1111122' 
COMPS,ioos:station:USF.COMPS:NFB:1,2014-03-01T03:06:00Z,25.0840,-81.0960,6.0,5.54,0.83,6.37,'1111122,1111122,1111122' 
COMPS,ioos:station:USF.COMPS:NFB:1,2014-03-01T03:12:00Z,25.0840,-81.0960,6.0,5.02,1.41,6.27,'1111122,1111122,1111122' 
COMPS,ioos:station:USF.COMPS:NFB:1,2014-03-01T03:18:00Z,25.0840,-81.0960,6.0,5.01,359.18,6.66,'1111122,1111122,1111122' 
COMPS,ioos:station:USF.COMPS:NFB:1,2014-03-01T03:24:00Z,25.0840,-81.0960,6.0,5.44,356.74,6.56,'1111122,1111122,1111122' 
COMPS,ioos:station:USF.COMPS:NFB:1,2014-03-01T03:30:00Z,25.0840,-81.0960,6.0,5.33,1.52,6.56,'1111122,1111122,1111122' 
COMPS,ioos:station:USF.COMPS:NFB:1,2014-03-01T03:36:00Z,25.0840,-81.0960,6.0,5.59,355.99,7.25,'1111122,1111122,1111122' 
COMPS,ioos:station:USF.COMPS:NFB:1,2014-03-01T03:42:00Z,25.0840,-81.0960,6.0,5.14,355.56,6.37,'1111122,1111122,1111122' 
COMPS,ioos:station:USF.COMPS:NFB:1,2014-03-01T03:48:00Z,25.0840,-81.0960,6.0,4.97,1.97,5.68,'1111122,1111122,1111122' 
COMPS,ioos:station:USF.COMPS:NFB:1,2014-03-01T03:54:00Z,25.0840,-81.0960,6.0,4.79,359.83,5.97,'1111122,1111122,1111122' 
COMPS,ioos:station:USF.COMPS:NFB:1,2014-03-01T04:00:00Z,25.0840,-81.0960,6.0,4.94,355.35,5.97,'1111122,1111122,1111122' 
COMPS,ioos:station:USF.COMPS:NFB:1,2014-03-01T04:06:00Z,25.0840,-81.0960,6.0,4.78,6.37,5.39,'1111122,1111122,1111122' 
COMPS,ioos:station:USF.COMPS:NFB:1,2014-03-01T04:12:00Z,25.0840,-81.0960,6.0,4.59,4.97,5.87,'1111122,1111122,1111122' 
COMPS,ioos:station:USF.COMPS:NFB:1,2014-03-01T04:18:00Z,25.0840,-81.0960,6.0,4.35,11.49,5.19,'1111122,1111122,1111122' 
COMPS,ioos:station:USF.COMPS:NFB:1,2014-03-01T04:24:00Z,25.0840,-81.0960,6.0,4.98,14.18,5.87,'1111122,1111122,1111122' 
COMPS,ioos:station:USF.COMPS:NFB:1,2014-03-01T04:30:00Z,25.0840,-81.0960,6.0,4.72,15.11,5.48,'1111122,1111122,1111122' 
COMPS,ioos:station:USF.COMPS:NFB:1,2014-03-01T04:36:00Z,25.0840,-81.0960,6.0,5.04,14.65,5.97,'1111122,1111122,1111122' 
COMPS,ioos:station:USF.COMPS:NFB:1,2014-03-01T04:42:00Z,25.0840,-81.0960,6.0,4.96,17.26,5.68,'1111122,1111122,1111122' 
COMPS,ioos:station:USF.COMPS:NFB:1,2014-03-01T04:48:00Z,25.0840,-81.0960,6.0,5.15,21.38,6.37,'1111122,1111122,1111122' 
COMPS,ioos:station:USF.COMPS:NFB:1,2014-03-01T04:54:00Z,25.0840,-81.0960,6.0,5.07,31.58,6.66,'1111122,1111122,1111122' 
COMPS,ioos:station:USF.COMPS:NFB:1,2014-03-01T05:00:00Z,25.0840,-81.0960,6.0,4.23,39.95,4.99,'1111122,1111122,1111122' 
COMPS,ioos:station:USF.COMPS:NFB:1,2014-03-01T05:06:00Z,25.0840,-81.0960,6.0,4.04,39.66,5.09,'1111122,1111122,1111122' 
COMPS,ioos:station:USF.COMPS:NFB:1,2014-03-01T05:12:00Z,25.0840,-81.0960,6.0,4.26,40.9,4.9,'1111122,1111122,1111122' 
COMPS,ioos:station:USF.COMPS:NFB:1,2014-03-01T05:18:00Z,25.0840,-81.0960,6.0,4.84,38.45,5.58,'1111122,1111122,1111122' 
COMPS,ioos:station:USF.COMPS:NFB:1,2014-03-01T05:24:00Z,25.0840,-81.0960,6.0,5.42,41.69,6.76,'1111122,1111122,1111122' 
COMPS,ioos:station:USF.COMPS:NFB:1,2014-03-01T05:30:00Z,25.0840,-81.0960,6.0,5.69,45.96,6.76,'1111122,1111122,1111122' 
COMPS,ioos:station:USF.COMPS:NFB:1,2014-03-01T05:36:00Z,25.0840,-81.0960,6.0,5.27,46.29,6.07,'1111122,1111122,1111122' 
COMPS,ioos:station:USF.COMPS:NFB:1,2014-03-01T05:42:00Z,25.0840,-81.0960,6.0,5.07,40.35,5.78,'1111122,1111122,1111122' 
COMPS,ioos:station:USF.COMPS:NFB:1,2014-03-01T05:48:00Z,25.0840,-81.0960,6.0,4.42,43.36,5.29,'1111122,1111122,1111122' 
COMPS,ioos:station:USF.COMPS:NFB:1,2014-03-01T05:54:00Z,25.0840,-81.0960,6.0,4.51,40.98,5.68,'1111122,1111122,1111122' 
COMPS,ioos:station:USF.COMPS:NFB:1,2014-03-01T06:00:00Z,25.0840,-81.0960,6.0,4.79,36.43,5.48,'1111122,1111122,1111122' 
COMPS,ioos:station:USF.COMPS:NFB:1,2014-03-01T06:06:00Z,25.0840,-81.0960,6.0,4.52,34.07,5.39,'1111122,1111122,1111122' 
COMPS,ioos:station:USF.COMPS:NFB:1,2014-03-01T06:12:00Z,25.0840,-81.0960,6.0,4.15,37.99,5.48,'1111122,1111122,1111122' 
COMPS,ioos:station:USF.COMPS:NFB:1,2014-03-01T06:18:00Z,25.0840,-81.0960,6.0,4.36,35.37,5.29,'1111122,1111122,1111122' 
COMPS,ioos:station:USF.COMPS:NFB:1,2014-03-01T06:24:00Z,25.0840,-81.0960,6.0,4.48,36.45,5.68,'1111122,1111122,1111122' 
COMPS,ioos:station:USF.COMPS:NFB:1,2014-03-01T06:30:00Z,25.0840,-81.0960,6.0,4.88,35.64,5.58,'1111122,1111122,1111122' 
COMPS,ioos:station:USF.COMPS:NFB:1,2014-03-01T06:36:00Z,25.0840,-81.0960,6.0,4.01,33.2,5.19,'1111122,1111122,1111122' 
COMPS,ioos:station:USF.COMPS:NFB:1,2014-03-01T06:42:00Z,25.0840,-81.0960,6.0,3.43,35.42,4.21,'1111122,1111122,1111122' 
COMPS,ioos:station:USF.COMPS:NFB:1,2014-03-01T06:48:00Z,25.0840,-81.0960,6.0,3.09,34.18,4.41,'1111122,1111122,1111122' 
COMPS,ioos:station:USF.COMPS:NFB:1,2014-03-01T06:54:00Z,25.0840,-81.0960,6.0,3.22,29.16,4.21,'1111122,1111122,1111122' 
COMPS,ioos:station:USF.COMPS:NFB:1,2014-03-01T07:00:00Z,25.0840,-81.0960,6.0,3.13,31.64,3.91,'1111122,1111122,1111122' 
COMPS,ioos:station:USF.COMPS:NFB:1,2014-03-01T07:06:00Z,25.0840,-81.0960,6.0,3.54,30.15,4.31,'1111122,1111122,1111122' 
COMPS,ioos:station:USF.COMPS:NFB:1,2014-03-01T07:12:00Z,25.0840,-81.0960,6.0,3.93,25.61,4.9,'1111122,1111122,1111122' 
COMPS,ioos:station:USF.COMPS:NFB:1,2014-03-01T07:18:00Z,25.0840,-81.0960,6.0,3.95,27.61,4.6,'1111122,1111122,1111122' 
COMPS,ioos:station:USF.COMPS:NFB:1,2014-03-01T07:24:00Z,25.0840,-81.0960,6.0,3.46,31.31,3.91,'1111122,1111122,1111122' 
COMPS,ioos:station:USF.COMPS:NFB:1,2014-03-01T07:30:00Z,25.0840,-81.0960,6.0,3.57,31.82,4.11,'1111122,1111122,1111122' 
COMPS,ioos:station:USF.COMPS:NFB:1,2014-03-01T07:36:00Z,25.0840,-81.0960,6.0,3.21,33.42,3.72,'1111122,1111122,1111122' 
COMPS,ioos:station:USF.COMPS:NFB:1,2014-03-01T07:42:00Z,25.0840,-81.0960,6.0,3.18,33.78,3.82,'1111122,1111122,1111122' 
COMPS,ioos:station:USF.COMPS:NFB:1,2014-03-01T07:48:00Z,25.0840,-81.0960,6.0,3.26,32.08,3.72,'1111122,1111122,1111122' 
COMPS,ioos:station:USF.COMPS:NFB:1,2014-03-01T07:54:00Z,25.0840,-81.0960,6.0,3.27,31.38,3.82,'1111122,1111122,1111122' 
COMPS,ioos:station:USF.COMPS:NFB:1,2014-03-01T08:00:00Z,25.0840,-81.0960,6.0,3.51,32.66,4.11,'1111122,1111122,1111122' 
COMPS,ioos:station:USF.COMPS:NFB:1,2014-03-01T08:06:00Z,25.0840,-81.0960,6.0,3.18,36.01,3.82,'1111122,1111122,1111122' 
COMPS,ioos:station:USF.COMPS:NFB:1,2014-03-01T08:12:00Z,25.0840,-81.0960,6.0,3.1,38.56,3.62,'1111122,1111122,1111122' 
COMPS,ioos:station:USF.COMPS:NFB:1,2014-03-01T08:18:00Z,25.0840,-81.0960,6.0,3.43,39.17,3.91,'1111122,1111122,1111122' 
COMPS,ioos:station:USF.COMPS:NFB:1,2014-03-01T08:24:00Z,25.0840,-81.0960,6.0,3.65,41.74,4.31,'1111122,1111122,1111122' 
COMPS,ioos:station:USF.COMPS:NFB:1,2014-03-01T08:30:00Z,25.0840,-81.0960,6.0,3.56,43.76,4.11,'1111122,1111122,1111122' 
COMPS,ioos:station:USF.COMPS:NFB:1,2014-03-01T08:36:00Z,25.0840,-81.0960,6.0,3.41,47.0,4.01,'1111122,1111122,1111122' 
COMPS,ioos:station:USF.COMPS:NFB:1,2014-03-01T08:42:00Z,25.0840,-81.0960,6.0,3.33,49.25,3.72,'1111122,1111122,1111122' 
COMPS,ioos:station:USF.COMPS:NFB:1,2014-03-01T08:48:00Z,25.0840,-81.0960,6.0,3.4,49.35,4.01,'1111122,1111122,1111122' 
COMPS,ioos:station:USF.COMPS:NFB:1,2014-03-01T08:54:00Z,25.0840,-81.0960,6.0,3.58,53.51,4.9,'1111122,1111122,1111122' 
COMPS,ioos:station:USF.COMPS:NFB:1,2014-03-01T09:00:00Z,25.0840,-81.0960,6.0,4.34,52.24,4.99,'1111122,1111122,1111122' 
COMPS,ioos:station:USF.COMPS:NFB:1,2014-03-01T09:06:00Z,25.0840,-81.0960,6.0,4.29,54.18,4.8,'1111122,1111122,1111122' 
COMPS,ioos:station:USF.COMPS:NFB:1,2014-03-01T09:12:00Z,25.0840,-81.0960,6.0,4.33,52.1,5.19,'1111122,1111122,1111122' 
COMPS,ioos:station:USF.COMPS:NFB:1,2014-03-01T09:18:00Z,25.0840,-81.0960,6.0,4.08,54.19,4.8,'1111122,1111122,1111122' 
COMPS,ioos:station:USF.COMPS:NFB:1,2014-03-01T09:24:00Z,25.0840,-81.0960,6.0,4.07,53.29,5.09,'1111122,1111122,1111122' 
COMPS,ioos:station:USF.COMPS:NFB:1,2014-03-01T09:30:00Z,25.0840,-81.0960,6.0,4.05,50.92,4.41,'1111122,1111122,1111122' 
COMPS,ioos:station:USF.COMPS:NFB:1,2014-03-01T09:36:00Z,25.0840,-81.0960,6.0,4.31,45.53,4.99,'1111122,1111122,1111122' 
COMPS,ioos:station:USF.COMPS:NFB:1,2014-03-01T09:42:00Z,25.0840,-81.0960,6.0,3.96,46.76,4.6,'1111122,1111122,1111122' 
COMPS,ioos:station:USF.COMPS:NFB:1,2014-03-01T09:48:00Z,25.0840,-81.0960,6.0,3.85,49.96,4.5,'1111122,1111122,1111122' 
COMPS,ioos:station:USF.COMPS:NFB:1,2014-03-01T09:54:00Z,25.0840,-81.0960,6.0,3.91,43.69,4.5,'1111122,1111122,1111122' 
COMPS,ioos:station:USF.COMPS:NFB:1,2014-03-01T10:00:00Z,25.0840,-81.0960,6.0,3.81,45.37,4.6,'1111122,1111122,1111122' 
COMPS,ioos:station:USF.COMPS:NFB:1,2014-03-01T10:06:00Z,25.0840,-81.0960,6.0,3.89,44.35,4.5,'1111122,1111122,1111122' 
COMPS,ioos:station:USF.COMPS:NFB:1,2014-03-01T10:12:00Z,25.0840,-81.0960,6.0,3.45,43.88,4.11,'1111122,1111122,1111122' 
COMPS,ioos:station:USF.COMPS:NFB:1,2014-03-01T10:18:00Z,25.0840,-81.0960,6.0,2.93,44.14,3.52,'1111122,1111122,1111122' 
COMPS,ioos:station:USF.COMPS:NFB:1,2014-03-01T10:24:00Z,25.0840,-81.0960,6.0,3.32,44.45,4.11,'1111122,1111122,1111122' 
COMPS,ioos:station:USF.COMPS:NFB:1,2014-03-01T10:30:00Z,25.0840,-81.0960,6.0,3.66,43.03,4.31,'1111122,1111122,1111122' 
COMPS,ioos:station:USF.COMPS:NFB:1,2014-03-01T10:36:00Z,25.0840,-81.0960,6.0,3.2,43.56,3.82,'1111122,1111122,1111122' 
COMPS,ioos:station:USF.COMPS:NFB:1,2014-03-01T10:42:00Z,25.0840,-81.0960,6.0,3.42,39.69,4.01,'1111122,1111122,1111122' 
COMPS,ioos:station:USF.COMPS:NFB:1,2014-03-01T10:48:00Z,25.0840,-81.0960,6.0,3.52,39.39,4.21,'1111122,1111122,1111122' 
COMPS,ioos:station:USF.COMPS:NFB:1,2014-03-01T10:54:00Z,25.0840,-81.0960,6.0,3.72,37.62,4.41,'1111122,1111122,1111122' 
COMPS,ioos:station:USF.COMPS:NFB:1,2014-03-01T11:00:00Z,25.0840,-81.0960,6.0,3.68,41.58,4.41,'1111122,1111122,1111122' 
COMPS,ioos:station:USF.COMPS:NFB:1,2014-03-01T11:06:00Z,25.0840,-81.0960,6.0,3.5,47.22,4.21,'1111122,1111122,1111122' 
COMPS,ioos:station:USF.COMPS:NFB:1,2014-03-01T11:12:00Z,25.0840,-81.0960,6.0,3.57,45.4,4.8,'1111122,1111122,1111122' 
COMPS,ioos:station:USF.COMPS:NFB:1,2014-03-01T11:18:00Z,25.0840,-81.0960,6.0,3.83,47.72,4.7,'1111122,1111122,1111122' 
COMPS,ioos:station:USF.COMPS:NFB:1,2014-03-01T11:24:00Z,25.0840,-81.0960,6.0,3.97,49.95,4.5,'1111122,1111122,1111122' 
COMPS,ioos:station:USF.COMPS:NFB:1,2014-03-01T11:30:00Z,25.0840,-81.0960,6.0,4.7,46.47,5.48,'1111122,1111122,1111122' 
COMPS,ioos:station:USF.COMPS:NFB:1,2014-03-01T11:36:00Z,25.0840,-81.0960,6.0,5.12,46.17,5.87,'1111122,1111122,1111122' 
COMPS,ioos:station:USF.COMPS:NFB:1,2014-03-01T11:42:00Z,25.0840,-81.0960,6.0,5.18,50.91,5.97,'1111122,1111122,1111122' 
COMPS,ioos:station:USF.COMPS:NFB:1,2014-03-01T11:48:00Z,25.0840,-81.0960,6.0,5.31,50.48,6.07,'1111122,1111122,1111122' 
COMPS,ioos:station:USF.COMPS:NFB:1,2014-03-01T11:54:00Z,25.0840,-81.0960,6.0,4.87,52.32,5.68,'1111122,1111122,1111122' 
COMPS,ioos:station:USF.COMPS:NFB:1,2014-03-01T12:00:00Z,25.0840,-81.0960,6.0,4.63,55.91,5.68,'1111122,1111122,1111122' 
COMPS,ioos:station:USF.COMPS:NFB:1,2014-03-01T12:06:00Z,25.0840,-81.0960,6.0,4.14,57.49,4.8,'1111122,1111122,1111122' 
COMPS,ioos:station:USF.COMPS:NFB:1,2014-03-01T12:12:00Z,25.0840,-81.0960,6.0,4.41,54.55,5.19,'1111122,1111122,1111122' 
COMPS,ioos:station:USF.COMPS:NFB:1,2014-03-01T12:18:00Z,25.0840,-81.0960,6.0,4.54,51.94,5.29,'1111122,1111122,1111122' 
COMPS,ioos:station:USF.COMPS:NFB:1,2014-03-01T12:24:00Z,25.0840,-81.0960,6.0,4.39,48.18,5.29,'1111122,1111122,1111122' 
COMPS,ioos:station:USF.COMPS:NFB:1,2014-03-01T12:30:00Z,25.0840,-81.0960,6.0,4.0,50.59,4.6,'1111122,1111122,1111122' 
COMPS,ioos:station:USF.COMPS:NFB:1,2014-03-01T12:36:00Z,25.0840,-81.0960,6.0,3.75,50.51,4.6,'1111122,1111122,1111122' 
COMPS,ioos:station:USF.COMPS:NFB:1,2014-03-01T12:42:00Z,25.0840,-81.0960,6.0,3.48,46.58,4.21,'1111122,1111122,1111122' 
COMPS,ioos:station:USF.COMPS:NFB:1,2014-03-01T12:48:00Z,25.0840,-81.0960,6.0,3.62,52.47,4.31,'1111122,1111122,1111122' 
COMPS,ioos:station:USF.COMPS:NFB:1,2014-03-01T12:54:00Z,25.0840,-81.0960,6.0,3.73,51.18,4.6,'1111122,1111122,1111122' 
COMPS,ioos:station:USF.COMPS:NFB:1,2014-03-01T13:00:00Z,25.0840,-81.0960,6.0,4.17,56.65,5.29,'1111122,1111122,1111122' 
COMPS,ioos:station:USF.COMPS:NFB:1,2014-03-01T13:06:00Z,25.0840,-81.0960,6.0,4.45,57.03,5.19,'1111122,1111122,1111122' 
COMPS,ioos:station:USF.COMPS:NFB:1,2014-03-01T13:12:00Z,25.0840,-81.0960,6.0,4.73,54.42,5.48,'1111122,1111122,1111122' 
COMPS,ioos:station:USF.COMPS:NFB:1,2014-03-01T13:18:00Z,25.0840,-81.0960,6.0,4.44,54.76,5.39,'1111122,1111122,1111122' 
COMPS,ioos:station:USF.COMPS:NFB:1,2014-03-01T13:24:00Z,25.0840,-81.0960,6.0,3.96,61.22,4.99,'1111122,1111122,1111122' 
COMPS,ioos:station:USF.COMPS:NFB:1,2014-03-01T13:30:00Z,25.0840,-81.0960,6.0,3.55,61.57,4.31,'1111122,1111122,1111122' 
COMPS,ioos:station:USF.COMPS:NFB:1,2014-03-01T13:36:00Z,25.0840,-81.0960,6.0,3.96,62.82,4.8,'1111122,1111122,1111122' 
COMPS,ioos:station:USF.COMPS:NFB:1,2014-03-01T13:42:00Z,25.0840,-81.0960,6.0,3.68,58.8,4.11,'1111122,1111122,1111122' 
COMPS,ioos:station:USF.COMPS:NFB:1,2014-03-01T13:48:00Z,25.0840,-81.0960,6.0,3.61,58.01,4.11,'1111122,1111122,1111122' 
COMPS,ioos:station:USF.COMPS:NFB:1,2014-03-01T13:54:00Z,25.0840,-81.0960,6.0,3.35,60.25,4.11,'1111122,1111122,1111122' 
COMPS,ioos:station:USF.COMPS:NFB:1,2014-03-01T14:00:00Z,25.0840,-81.0960,6.0,3.09,61.31,3.72,'1111122,1111122,1111122' 
COMPS,ioos:station:USF.COMPS:NFB:1,2014-03-01T14:06:00Z,25.0840,-81.0960,6.0,3.12,59.16,3.72,'1111122,1111122,1111122' 
COMPS,ioos:station:USF.COMPS:NFB:1,2014-03-01T14:12:00Z,25.0840,-81.0960,6.0,2.95,68.02,3.62,'1111122,1111122,1111122' 
COMPS,ioos:station:USF.COMPS:NFB:1,2014-03-01T14:18:00Z,25.0840,-81.0960,6.0,2.92,65.09,3.62,'1111122,1111122,1111122' 
COMPS,ioos:station:USF.COMPS:NFB:1,2014-03-01T14:24:00Z,25.0840,-81.0960,6.0,2.7,65.3,3.82,'1111122,1111122,1111122' 
COMPS,ioos:station:USF.COMPS:NFB:1,2014-03-01T14:30:00Z,25.0840,-81.0960,6.0,3.1,63.31,3.91,'1111122,1111122,1111122' 
COMPS,ioos:station:USF.COMPS:NFB:1,2014-03-01T14:36:00Z,25.0840,-81.0960,6.0,3.78,60.06,4.5,'1111122,1111122,1111122' 
COMPS,ioos:station:USF.COMPS:NFB:1,2014-03-01T14:42:00Z,25.0840,-81.0960,6.0,3.63,60.02,4.41,'1111122,1111122,1111122' 
COMPS,ioos:station:USF.COMPS:NFB:1,2014-03-01T14:48:00Z,25.0840,-81.0960,6.0,3.81,61.06,4.5,'1111122,1111122,1111122' 
COMPS,ioos:station:USF.COMPS:NFB:1,2014-03-01T14:54:00Z,25.0840,-81.0960,6.0,3.58,61.28,4.8,'1111122,1111122,1111122' 
COMPS,ioos:station:USF.COMPS:NFB:1,2014-03-01T15:00:00Z,25.0840,-81.0960,6.0,3.45,58.74,4.7,'1111122,1111122,1111122' 
COMPS,ioos:station:USF.COMPS:NFB:1,2014-03-01T15:06:00Z,25.0840,-81.0960,6.0,3.08,58.79,4.31,'1111122,1111122,1111122' 
COMPS,ioos:station:USF.COMPS:NFB:1,2014-03-01T15:12:00Z,25.0840,-81.0960,6.0,2.58,41.14,3.42,'1111122,1111122,1111122' 
COMPS,ioos:station:USF.COMPS:NFB:1,2014-03-01T15:18:00Z,25.0840,-81.0960,6.0,3.06,34.74,3.82,'1111122,1111122,1111122' 
COMPS,ioos:station:USF.COMPS:NFB:1,2014-03-01T15:24:00Z,25.0840,-81.0960,6.0,2.44,40.11,3.62,'1111122,1111122,1111122' 
COMPS,ioos:station:USF.COMPS:NFB:1,2014-03-01T15:30:00Z,25.0840,-81.0960,6.0,2.1,40.16,2.84,'1111122,1111122,1111122' 
COMPS,ioos:station:USF.COMPS:NFB:1,2014-03-01T15:36:00Z,25.0840,-81.0960,6.0,3.56,21.3,4.6,'1111122,1111122,1111122' 
COMPS,ioos:station:USF.COMPS:NFB:1,2014-03-01T15:42:00Z,25.0840,-81.0960,6.0,3.64,13.88,4.6,'1111122,1111122,1111122' 
COMPS,ioos:station:USF.COMPS:NFB:1,2014-03-01T15:48:00Z,25.0840,-81.0960,6.0,3.28,16.72,4.41,'1111122,1111122,1111122' 
COMPS,ioos:station:USF.COMPS:NFB:1,2014-03-01T15:54:00Z,25.0840,-81.0960,6.0,3.56,7.12,4.5,'1111122,1111122,1111122' 
COMPS,ioos:station:USF.COMPS:NFB:1,2014-03-01T16:00:00Z,25.0840,-81.0960,6.0,2.38,27.65,3.23,'1111122,1111122,1111122' 
COMPS,ioos:station:USF.COMPS:NFB:1,2014-03-01T16:06:00Z,25.0840,-81.0960,6.0,2.2,24.69,3.33,'1111122,1111122,1111122' 
COMPS,ioos:station:USF.COMPS:NFB:1,2014-03-01T16:12:00Z,25.0840,-81.0960,6.0,3.0,11.93,3.82,'1111122,1111122,1111122' 
COMPS,ioos:station:USF.COMPS:NFB:1,2014-03-01T16:18:00Z,25.0840,-81.0960,6.0,4.18,358.4,4.8,'1111122,1111122,1111122' 
COMPS,ioos:station:USF.COMPS:NFB:1,2014-03-01T16:24:00Z,25.0840,-81.0960,6.0,4.11,358.79,4.7,'1111122,1111122,1111122' 
COMPS,ioos:station:USF.COMPS:NFB:1,2014-03-01T16:30:00Z,25.0840,-81.0960,6.0,4.46,342.77,5.39,'1111122,1111122,1111122' 
COMPS,ioos:station:USF.COMPS:NFB:1,2014-03-01T16:36:00Z,25.0840,-81.0960,6.0,4.34,329.88,4.9,'1111122,1111122,1111122' 
COMPS,ioos:station:USF.COMPS:NFB:1,2014-03-01T16:42:00Z,25.0840,-81.0960,6.0,4.54,323.54,5.19,'1111122,1111122,1111122' 
COMPS,ioos:station:USF.COMPS:NFB:1,2014-03-01T16:48:00Z,25.0840,-81.0960,6.0,4.75,319.08,5.29,'1111122,1111122,1111122' 
COMPS,ioos:station:USF.COMPS:NFB:1,2014-03-01T16:54:00Z,25.0840,-81.0960,6.0,5.28,327.06,6.17,'1111122,1111122,1111122' 
COMPS,ioos:station:USF.COMPS:NFB:1,2014-03-01T17:00:00Z,25.0840,-81.0960,6.0,5.61,336.54,6.27,'1111122,1111122,1111122' 
COMPS,ioos:station:USF.COMPS:NFB:1,2014-03-01T17:06:00Z,25.0840,-81.0960,6.0,5.58,337.77,6.85,'1111122,1111122,1111122' 
COMPS,ioos:station:USF.COMPS:NFB:1,2014-03-01T17:12:00Z,25.0840,-81.0960,6.0,5.67,342.43,7.15,'1111122,1111122,1111122' 
COMPS,ioos:station:USF.COMPS:NFB:1,2014-03-01T17:18:00Z,25.0840,-81.0960,6.0,4.7,350.14,5.68,'1111122,1111122,1111122' 
COMPS,ioos:station:USF.COMPS:NFB:1,2014-03-01T17:24:00Z,25.0840,-81.0960,6.0,4.52,349.79,5.87,'1111122,1111122,1111122' 
COMPS,ioos:station:USF.COMPS:NFB:1,2014-03-01T17:30:00Z,25.0840,-81.0960,6.0,3.94,357.87,5.48,'1111122,1111122,1111122' 
COMPS,ioos:station:USF.COMPS:NFB:1,2014-03-01T17:36:00Z,25.0840,-81.0960,6.0,2.59,33.25,3.82,'1111122,1111122,1111122' 
COMPS,ioos:station:USF.COMPS:NFB:1,2014-03-01T17:42:00Z,25.0840,-81.0960,6.0,3.45,358.13,4.6,'1111122,1111122,1111122' 
COMPS,ioos:station:USF.COMPS:NFB:1,2014-03-01T17:48:00Z,25.0840,-81.0960,6.0,1.81,353.89,4.5,'1111122,1111122,1111122' 
COMPS,ioos:station:USF.COMPS:NFB:1,2014-03-01T17:54:00Z,25.0840,-81.0960,6.0,0.9,309.03,3.23,'1111122,1111122,1111122' 
COMPS,ioos:station:USF.COMPS:NFB:1,2014-03-01T18:00:00Z,25.0840,-81.0960,6.0,2.12,23.98,2.84,'1111122,1111122,1111122' 
COMPS,ioos:station:USF.COMPS:NFB:1,2014-03-01T18:06:00Z,25.0840,-81.0960,6.0,2.98,38.16,4.01,'1111122,1111122,1111122' 
COMPS,ioos:station:USF.COMPS:NFB:1,2014-03-01T18:12:00Z,25.0840,-81.0960,6.0,2.91,47.27,4.11,'1111122,1111122,1111122' 
COMPS,ioos:station:USF.COMPS:NFB:1,2014-03-01T18:18:00Z,25.0840,-81.0960,6.0,1.73,19.76,3.33,'1111122,1111122,1111122' 
COMPS,ioos:station:USF.COMPS:NFB:1,2014-03-01T18:24:00Z,25.0840,-81.0960,6.0,1.53,38.99,3.62,'1111122,1111122,1111122' 
COMPS,ioos:station:USF.COMPS:NFB:1,2014-03-01T18:30:00Z,25.0840,-81.0960,6.0,1.79,73.7,3.13,'1111122,1111122,1111122' 
COMPS,ioos:station:USF.COMPS:NFB:1,2014-03-01T18:36:00Z,25.0840,-81.0960,6.0,2.61,54.49,3.33,'1111122,1111122,1111122' 
COMPS,ioos:station:USF.COMPS:NFB:1,2014-03-01T18:42:00Z,25.0840,-81.0960,6.0,2.11,16.61,3.13,'1111122,1111122,1111122' 
COMPS,ioos:station:USF.COMPS:NFB:1,2014-03-01T18:48:00Z,25.0840,-81.0960,6.0,3.56,337.74,4.7,'1111122,1111122,1111122' 
COMPS,ioos:station:USF.COMPS:NFB:1,2014-03-01T18:54:00Z,25.0840,-81.0960,6.0,3.53,345.08,5.87,'1111122,1111122,1111122' 
COMPS,ioos:station:USF.COMPS:NFB:1,2014-03-01T19:00:00Z,25.0840,-81.0960,6.0,4.25,341.06,5.09,'1111122,1111122,1111122' 
COMPS,ioos:station:USF.COMPS:NFB:1,2014-03-01T19:06:00Z,25.0840,-81.0960,6.0,4.26,348.92,5.29,'1111122,1111122,1111122' 
COMPS,ioos:station:USF.COMPS:NFB:1,2014-03-01T19:12:00Z,25.0840,-81.0960,6.0,3.65,351.76,5.58,'1111122,1111122,1111122' 
COMPS,ioos:station:USF.COMPS:NFB:1,2014-03-01T19:18:00Z,25.0840,-81.0960,6.0,4.53,348.29,5.48,'1111122,1111122,1111122' 
COMPS,ioos:station:USF.COMPS:NFB:1,2014-03-01T19:24:00Z,25.0840,-81.0960,6.0,4.7,343.14,5.78,'1111122,1111122,1111122' 
COMPS,ioos:station:USF.COMPS:NFB:1,2014-03-01T19:30:00Z,25.0840,-81.0960,6.0,4.8,338.13,5.68,'1111122,1111122,1111122' 
COMPS,ioos:station:USF.COMPS:NFB:1,2014-03-01T19:36:00Z,25.0840,-81.0960,6.0,4.68,347.69,5.48,'1111122,1111122,1111122' 
COMPS,ioos:station:USF.COMPS:NFB:1,2014-03-01T19:42:00Z,25.0840,-81.0960,6.0,4.67,338.05,5.19,'1111122,1111122,1111122' 
COMPS,ioos:station:USF.COMPS:NFB:1,2014-03-01T19:48:00Z,25.0840,-81.0960,6.0,4.35,336.19,5.29,'1111122,1111122,1111122' 